Year,Month,Day,Hour,Minute,Value (Times are PST for windspeed in km/hr)
2021,02,24,00,00,7.10
2021,02,24,00,01,9.80
2021,02,24,00,02,10.30
2021,02,24,00,03,9.60
2021,02,24,00,04,7.40
2021,02,24,00,05,6.70
2021,02,24,00,06,4.30
2021,02,24,00,07,9.40
2021,02,24,00,08,10.00
2021,02,24,00,09,4.70
2021,02,24,00,10,4.80
2021,02,24,00,11,6.00
2021,02,24,00,12,3.60
2021,02,24,00,13,4.70
2021,02,24,00,14,10.70
2021,02,24,00,15,10.40
2021,02,24,00,16,5.80
2021,02,24,00,17,4.30
2021,02,24,00,18,4.90
2021,02,24,00,19,6.80
2021,02,24,00,20,4.30
2021,02,24,00,21,6.00
2021,02,24,00,22,3.10
2021,02,24,00,23,4.70
2021,02,24,00,24,4.40
2021,02,24,00,25,4.30
2021,02,24,00,26,4.30
2021,02,24,00,27,3.10
2021,02,24,00,28,2.20
2021,02,24,00,29,1.20
2021,02,24,00,30,5.50
2021,02,24,00,31,4.40
2021,02,24,00,32,5.70
2021,02,24,00,33,4.70
2021,02,24,00,34,2.40
2021,02,24,00,35,2.30
2021,02,24,00,36,3.90
2021,02,24,00,37,5.00
2021,02,24,00,38,7.10
2021,02,24,00,39,5.40
2021,02,24,00,40,4.40
2021,02,24,00,41,3.40
2021,02,24,00,42,5.20
2021,02,24,00,43,9.00
2021,02,24,00,44,9.50
2021,02,24,00,45,12.20
2021,02,24,00,46,9.30
2021,02,24,00,47,9.10
2021,02,24,00,48,8.70
2021,02,24,00,49,5.20
2021,02,24,00,50,5.60
2021,02,24,00,51,1.80
2021,02,24,00,52,3.10
2021,02,24,00,53,1.50
2021,02,24,00,54,0.00
2021,02,24,00,55,0.00
2021,02,24,00,56,0.00
2021,02,24,00,57,0.00
2021,02,24,00,58,0.00
2021,02,24,00,59,0.00
2021,02,24,01,00,0.00
2021,02,24,01,01,0.00
2021,02,24,01,02,0.10
2021,02,24,01,03,0.00
2021,02,24,01,04,3.10
2021,02,24,01,05,2.30
2021,02,24,01,06,0.80
2021,02,24,01,07,0.00
2021,02,24,01,08,2.40
2021,02,24,01,09,1.70
2021,02,24,01,10,0.10
2021,02,24,01,11,0.00
2021,02,24,01,12,0.00
2021,02,24,01,13,0.00
2021,02,24,01,14,0.00
2021,02,24,01,15,0.00
2021,02,24,01,16,0.00
2021,02,24,01,17,0.00
2021,02,24,01,18,0.00
2021,02,24,01,19,0.00
2021,02,24,01,20,0.00
2021,02,24,01,21,0.00
2021,02,24,01,22,0.00
2021,02,24,01,23,0.00
2021,02,24,01,24,0.00
2021,02,24,01,25,1.40
2021,02,24,01,26,0.80
2021,02,24,01,27,0.00
2021,02,24,01,28,1.10
2021,02,24,01,29,3.50
2021,02,24,01,30,0.10
2021,02,24,01,31,0.00
2021,02,24,01,32,0.00
2021,02,24,01,33,0.00
2021,02,24,01,34,0.00
2021,02,24,01,35,0.10
2021,02,24,01,36,0.80
2021,02,24,01,37,0.20
2021,02,24,01,38,1.00
2021,02,24,01,39,8.10
2021,02,24,01,40,4.70
2021,02,24,01,41,1.80
2021,02,24,01,42,1.90
2021,02,24,01,43,1.30
2021,02,24,01,44,1.40
2021,02,24,01,45,1.30
2021,02,24,01,46,0.20
2021,02,24,01,47,2.70
2021,02,24,01,48,2.00
2021,02,24,01,49,0.60
2021,02,24,01,50,3.30
2021,02,24,01,51,2.10
2021,02,24,01,52,1.90
2021,02,24,01,53,0.30
2021,02,24,01,54,0.60
2021,02,24,01,55,1.10
2021,02,24,01,56,1.20
2021,02,24,01,57,2.10
2021,02,24,01,58,1.30
2021,02,24,01,59,0.20
2021,02,24,02,00,0.00
2021,02,24,02,01,0.30
2021,02,24,02,02,0.30
2021,02,24,02,03,0.80
2021,02,24,02,04,2.70
2021,02,24,02,05,2.40
2021,02,24,02,06,0.10
2021,02,24,02,07,0.60
2021,02,24,02,08,0.60
2021,02,24,02,09,1.80
2021,02,24,02,10,2.60
2021,02,24,02,11,4.70
2021,02,24,02,12,4.00
2021,02,24,02,13,0.90
2021,02,24,02,14,2.20
2021,02,24,02,15,5.80
2021,02,24,02,16,5.00
2021,02,24,02,17,4.50
2021,02,24,02,18,8.90
2021,02,24,02,19,8.50
2021,02,24,02,20,7.00
2021,02,24,02,21,8.00
2021,02,24,02,22,6.10
2021,02,24,02,23,9.10
2021,02,24,02,24,6.60
2021,02,24,02,25,6.00
2021,02,24,02,26,6.90
2021,02,24,02,27,8.30
2021,02,24,02,28,7.00
2021,02,24,02,29,6.70
2021,02,24,02,30,6.40
2021,02,24,02,31,4.40
2021,02,24,02,32,8.10
2021,02,24,02,33,7.30
2021,02,24,02,34,5.60
2021,02,24,02,35,0.40
2021,02,24,02,36,0.00
2021,02,24,02,37,0.00
2021,02,24,02,38,0.60
2021,02,24,02,39,0.00
2021,02,24,02,40,0.00
2021,02,24,02,41,0.20
2021,02,24,02,42,2.00
2021,02,24,02,43,1.40
2021,02,24,02,44,1.00
2021,02,24,02,45,3.50
2021,02,24,02,46,4.90
2021,02,24,02,47,3.50
2021,02,24,02,48,0.00
2021,02,24,02,49,0.00
2021,02,24,02,50,0.00
2021,02,24,02,51,2.00
2021,02,24,02,52,5.20
2021,02,24,02,53,3.10
2021,02,24,02,54,3.00
2021,02,24,02,55,1.90
2021,02,24,02,56,0.20
2021,02,24,02,57,2.50
2021,02,24,02,58,12.10
2021,02,24,02,59,10.90
2021,02,24,03,00,6.90
2021,02,24,03,01,6.20
2021,02,24,03,02,6.20
2021,02,24,03,03,6.80
2021,02,24,03,04,6.30
2021,02,24,03,05,5.90
2021,02,24,03,06,5.10
2021,02,24,03,07,5.00
2021,02,24,03,08,2.10
2021,02,24,03,09,3.80
2021,02,24,03,10,5.40
2021,02,24,03,11,7.40
2021,02,24,03,12,6.10
2021,02,24,03,13,6.80
2021,02,24,03,14,6.40
2021,02,24,03,15,7.40
2021,02,24,03,16,6.20
2021,02,24,03,17,4.80
2021,02,24,03,18,7.50
2021,02,24,03,19,6.60
2021,02,24,03,20,7.20
2021,02,24,03,21,7.00
2021,02,24,03,22,8.30
2021,02,24,03,23,6.60
2021,02,24,03,24,6.40
2021,02,24,03,25,8.20
2021,02,24,03,26,7.30
2021,02,24,03,27,8.50
2021,02,24,03,28,9.70
2021,02,24,03,29,6.00
2021,02,24,03,30,4.40
2021,02,24,03,31,6.10
2021,02,24,03,32,6.80
2021,02,24,03,33,6.20
2021,02,24,03,34,5.50
2021,02,24,03,35,1.90
2021,02,24,03,36,1.20
2021,02,24,03,37,2.70
2021,02,24,03,38,4.40
2021,02,24,03,39,1.10
2021,02,24,03,40,0.00
2021,02,24,03,41,4.00
2021,02,24,03,42,3.60
2021,02,24,03,43,1.60
2021,02,24,03,44,3.20
2021,02,24,03,45,3.50
2021,02,24,03,46,1.30
2021,02,24,03,47,0.00
2021,02,24,03,48,0.00
2021,02,24,03,49,1.40
2021,02,24,03,50,0.40
2021,02,24,03,51,0.80
2021,02,24,03,52,0.30
2021,02,24,03,53,1.50
2021,02,24,03,54,5.10
2021,02,24,03,55,5.50
2021,02,24,03,56,5.80
2021,02,24,03,57,5.20
2021,02,24,03,58,4.10
2021,02,24,03,59,2.30
2021,02,24,04,00,2.20
2021,02,24,04,01,0.20
2021,02,24,04,02,0.70
2021,02,24,04,03,0.00
2021,02,24,04,04,0.00
2021,02,24,04,05,0.00
2021,02,24,04,06,0.00
2021,02,24,04,07,0.00
2021,02,24,04,08,0.00
2021,02,24,04,09,0.00
2021,02,24,04,10,0.00
2021,02,24,04,11,0.00
2021,02,24,04,12,0.00
2021,02,24,04,13,0.00
2021,02,24,04,14,0.00
2021,02,24,04,15,0.10
2021,02,24,04,16,0.00
2021,02,24,04,17,2.00
2021,02,24,04,18,3.80
2021,02,24,04,19,2.80
2021,02,24,04,20,1.20
2021,02,24,04,21,0.60
2021,02,24,04,22,2.70
2021,02,24,04,23,2.60
2021,02,24,04,24,3.80
2021,02,24,04,25,1.00
2021,02,24,04,26,0.90
2021,02,24,04,27,0.00
2021,02,24,04,28,1.60
2021,02,24,04,29,1.60
2021,02,24,04,30,3.20
2021,02,24,04,31,0.50
2021,02,24,04,32,1.20
2021,02,24,04,33,1.80
2021,02,24,04,34,2.10
2021,02,24,04,35,1.80
2021,02,24,04,36,1.60
2021,02,24,04,37,1.90
2021,02,24,04,38,1.80
2021,02,24,04,39,1.90
2021,02,24,04,40,3.00
2021,02,24,04,41,3.50
2021,02,24,04,42,3.20
2021,02,24,04,43,4.10
2021,02,24,04,44,5.00
2021,02,24,04,45,4.70
2021,02,24,04,46,2.70
2021,02,24,04,47,3.40
2021,02,24,04,48,3.10
2021,02,24,04,49,3.90
2021,02,24,04,50,3.00
2021,02,24,04,51,2.30
2021,02,24,04,52,2.60
2021,02,24,04,53,0.60
2021,02,24,04,54,1.90
2021,02,24,04,55,2.60
2021,02,24,04,56,3.00
2021,02,24,04,57,4.50
2021,02,24,04,58,3.30
2021,02,24,04,59,3.90
2021,02,24,05,00,2.50
2021,02,24,05,01,2.00
2021,02,24,05,02,2.30
2021,02,24,05,03,3.40
2021,02,24,05,04,3.50
2021,02,24,05,05,3.00
2021,02,24,05,06,2.20
2021,02,24,05,07,3.00
2021,02,24,05,08,2.70
2021,02,24,05,09,2.50
2021,02,24,05,10,2.50
2021,02,24,05,11,2.10
2021,02,24,05,12,2.70
2021,02,24,05,13,3.30
2021,02,24,05,14,2.60
2021,02,24,05,15,3.00
2021,02,24,05,16,2.70
2021,02,24,05,17,2.40
2021,02,24,05,18,1.90
2021,02,24,05,19,2.20
2021,02,24,05,20,1.70
2021,02,24,05,21,2.20
2021,02,24,05,22,5.30
2021,02,24,05,23,6.80
2021,02,24,05,24,8.40
2021,02,24,05,25,9.30
2021,02,24,05,26,8.10
2021,02,24,05,27,8.40
2021,02,24,05,28,5.40
2021,02,24,05,29,8.10
2021,02,24,05,30,5.30
2021,02,24,05,31,5.80
2021,02,24,05,32,7.10
2021,02,24,05,33,8.40
2021,02,24,05,34,6.40
2021,02,24,05,35,5.50
2021,02,24,05,36,4.30
2021,02,24,05,37,2.70
2021,02,24,05,38,0.80
2021,02,24,05,39,1.60
2021,02,24,05,40,0.00
2021,02,24,05,41,0.00
2021,02,24,05,42,0.00
2021,02,24,05,43,0.00
2021,02,24,05,44,0.00
2021,02,24,05,45,0.00
2021,02,24,05,46,1.50
2021,02,24,05,47,2.80
2021,02,24,05,48,4.40
2021,02,24,05,49,3.10
2021,02,24,05,50,3.30
2021,02,24,05,51,3.70
2021,02,24,05,52,3.50
2021,02,24,05,53,1.70
2021,02,24,05,54,2.40
2021,02,24,05,55,3.00
2021,02,24,05,56,4.10
2021,02,24,05,57,4.50
2021,02,24,05,58,3.50
2021,02,24,05,59,3.90
2021,02,24,06,00,3.70
2021,02,24,06,01,4.30
2021,02,24,06,02,5.20
2021,02,24,06,03,4.60
2021,02,24,06,04,5.10
2021,02,24,06,05,6.20
2021,02,24,06,06,4.50
2021,02,24,06,07,3.00
2021,02,24,06,08,3.20
2021,02,24,06,09,1.10
2021,02,24,06,10,0.90
2021,02,24,06,11,2.50
2021,02,24,06,12,2.50
2021,02,24,06,13,2.30
2021,02,24,06,14,0.30
2021,02,24,06,15,0.60
2021,02,24,06,16,0.30
2021,02,24,06,17,2.70
2021,02,24,06,18,3.30
2021,02,24,06,19,4.30
2021,02,24,06,20,3.80
2021,02,24,06,21,3.60
2021,02,24,06,22,3.90
2021,02,24,06,23,4.00
2021,02,24,06,24,4.70
2021,02,24,06,25,5.10
2021,02,24,06,26,4.40
2021,02,24,06,27,3.70
2021,02,24,06,28,3.40
2021,02,24,06,29,3.50
2021,02,24,06,30,2.00
2021,02,24,06,31,1.60
2021,02,24,06,32,1.60
2021,02,24,06,33,1.60
2021,02,24,06,34,1.60
2021,02,24,06,35,1.60
2021,02,24,06,36,1.60
2021,02,24,06,37,1.60
2021,02,24,06,38,1.60
2021,02,24,06,39,1.60
2021,02,24,06,40,1.60
2021,02,24,07,47,2.30
2021,02,24,07,48,2.40
2021,02,24,07,49,3.20
2021,02,24,07,50,1.40
2021,02,24,07,51,3.50
2021,02,24,07,52,3.90
2021,02,24,07,53,3.00
2021,02,24,07,54,2.00
2021,02,24,07,55,3.00
2021,02,24,07,56,4.10
2021,02,24,07,57,2.80
2021,02,24,07,58,2.10
2021,02,24,07,59,1.70
2021,02,24,08,00,1.10
2021,02,24,08,01,1.10
2021,02,24,08,02,0.20
2021,02,24,08,03,0.30
2021,02,24,08,04,0.00
2021,02,24,08,05,0.10
2021,02,24,08,06,0.00
2021,02,24,08,07,0.00
2021,02,24,08,08,0.50
2021,02,24,08,09,0.10
2021,02,24,08,10,0.00
2021,02,24,08,11,0.00
2021,02,24,08,12,0.00
2021,02,24,08,13,0.00
2021,02,24,08,14,0.00
2021,02,24,08,15,0.00
2021,02,24,08,16,2.60
2021,02,24,08,17,3.60
2021,02,24,08,18,4.60
2021,02,24,08,19,3.50
2021,02,24,08,20,5.60
2021,02,24,08,21,5.80
2021,02,24,08,22,4.20
2021,02,24,08,23,6.50
2021,02,24,08,24,7.00
2021,02,24,08,25,6.80
2021,02,24,08,26,7.00
2021,02,24,08,27,6.40
2021,02,24,08,28,5.80
2021,02,24,08,29,5.00
2021,02,24,08,30,6.10
2021,02,24,08,31,4.10
2021,02,24,08,32,3.40
2021,02,24,08,33,4.30
2021,02,24,08,34,6.90
2021,02,24,08,35,6.40
2021,02,24,08,36,4.70
2021,02,24,08,37,5.20
2021,02,24,08,38,3.60
2021,02,24,08,39,3.30
2021,02,24,08,40,4.80
2021,02,24,08,41,6.00
2021,02,24,08,42,4.10
2021,02,24,08,43,6.10
2021,02,24,08,44,5.70
2021,02,24,08,45,5.20
2021,02,24,08,46,4.90
2021,02,24,08,47,3.40
2021,02,24,08,48,2.50
2021,02,24,08,49,5.80
2021,02,24,08,50,6.10
2021,02,24,08,51,5.60
2021,02,24,08,52,7.00
2021,02,24,08,53,6.40
2021,02,24,08,54,7.40
2021,02,24,08,55,7.60
2021,02,24,08,56,6.60
2021,02,24,08,57,6.00
2021,02,24,08,58,5.20
2021,02,24,08,59,5.20
2021,02,24,09,00,4.70
2021,02,24,09,01,4.90
2021,02,24,09,02,6.00
2021,02,24,09,03,6.70
2021,02,24,09,04,8.30
2021,02,24,09,05,9.40
2021,02,24,09,06,8.80
2021,02,24,09,07,6.20
2021,02,24,09,08,8.70
2021,02,24,09,09,8.80
2021,02,24,09,10,7.30
2021,02,24,09,11,8.00
2021,02,24,09,12,7.90
2021,02,24,09,13,8.80
2021,02,24,09,14,6.40
2021,02,24,09,15,7.70
2021,02,24,09,16,6.30
2021,02,24,09,17,8.00
2021,02,24,09,18,8.20
2021,02,24,09,19,9.00
2021,02,24,09,20,10.90
2021,02,24,09,21,10.40
2021,02,24,09,22,10.10
2021,02,24,09,23,9.70
2021,02,24,09,24,8.90
2021,02,24,09,25,10.80
2021,02,24,09,26,8.60
2021,02,24,09,27,9.20
2021,02,24,09,28,7.40
2021,02,24,09,29,11.00
2021,02,24,09,30,9.70
2021,02,24,09,31,6.30
2021,02,24,09,32,6.40
2021,02,24,09,33,7.10
2021,02,24,09,34,7.40
2021,02,24,09,35,8.60
2021,02,24,09,36,6.20
2021,02,24,09,37,9.30
2021,02,24,09,38,8.50
2021,02,24,09,39,6.20
2021,02,24,09,40,7.30
2021,02,24,09,41,5.60
2021,02,24,09,42,6.20
2021,02,24,09,43,5.90
2021,02,24,09,44,6.90
2021,02,24,09,45,6.20
2021,02,24,09,46,6.40
2021,02,24,09,47,7.60
2021,02,24,09,48,7.10
2021,02,24,09,49,6.70
2021,02,24,09,50,7.00
2021,02,24,09,51,3.40
2021,02,24,09,52,6.00
2021,02,24,09,53,5.20
2021,02,24,09,54,6.30
2021,02,24,09,55,8.70
2021,02,24,09,56,7.80
2021,02,24,09,57,7.90
2021,02,24,09,58,7.60
2021,02,24,09,59,7.00
2021,02,24,10,00,6.10
2021,02,24,10,01,9.40
2021,02,24,10,02,6.90
2021,02,24,10,03,5.10
2021,02,24,10,04,5.60
2021,02,24,10,05,7.40
2021,02,24,10,06,7.70
2021,02,24,10,07,5.60
2021,02,24,10,08,6.30
2021,02,24,10,09,7.40
2021,02,24,10,10,7.80
2021,02,24,10,11,6.80
2021,02,24,10,12,8.00
2021,02,24,10,13,8.00
2021,02,24,10,14,5.70
2021,02,24,10,15,7.60
2021,02,24,10,16,7.60
2021,02,24,10,17,9.10
2021,02,24,10,18,8.80
2021,02,24,10,19,9.30
2021,02,24,10,20,5.60
2021,02,24,10,21,8.40
2021,02,24,10,22,9.80
2021,02,24,10,23,8.30
2021,02,24,10,24,7.20
2021,02,24,10,25,8.10
2021,02,24,10,26,7.20
2021,02,24,10,27,7.80
2021,02,24,10,28,7.70
2021,02,24,10,29,8.20
2021,02,24,10,30,6.90
2021,02,24,10,31,5.10
2021,02,24,10,32,6.60
2021,02,24,10,33,7.30
2021,02,24,10,34,7.50
2021,02,24,10,35,6.70
2021,02,24,10,36,4.80
2021,02,24,10,37,4.30
2021,02,24,10,38,8.20
2021,02,24,10,39,3.90
2021,02,24,10,40,4.10
2021,02,24,10,41,4.30
2021,02,24,10,42,6.40
2021,02,24,10,43,6.20
2021,02,24,10,44,5.60
2021,02,24,10,45,1.70
2021,02,24,10,46,1.70
2021,02,24,10,47,0.80
2021,02,24,10,48,0.00
2021,02,24,10,49,0.00
2021,02,24,10,50,0.00
2021,02,24,10,51,0.00
2021,02,24,10,52,0.00
2021,02,24,10,53,0.00
2021,02,24,10,54,0.00
2021,02,24,10,55,0.00
2021,02,24,10,56,0.00
2021,02,24,10,57,0.00
2021,02,24,10,58,0.00
2021,02,24,10,59,0.00
2021,02,24,11,00,0.00
2021,02,24,11,01,0.00
2021,02,24,11,02,0.00
2021,02,24,11,03,0.00
2021,02,24,11,04,0.00
2021,02,24,11,05,0.00
2021,02,24,11,06,0.00
2021,02,24,11,07,0.00
2021,02,24,11,08,0.00
2021,02,24,11,09,0.00
2021,02,24,11,10,0.00
2021,02,24,11,11,0.00
2021,02,24,11,12,0.00
2021,02,24,11,13,0.00
2021,02,24,11,14,0.00
2021,02,24,11,15,0.00
2021,02,24,11,16,0.00
2021,02,24,11,17,0.00
2021,02,24,11,18,0.00
2021,02,24,11,19,0.00
2021,02,24,11,20,0.00
2021,02,24,11,21,0.00
2021,02,24,11,22,0.00
2021,02,24,11,23,0.00
2021,02,24,11,24,0.00
2021,02,24,11,25,0.00
2021,02,24,11,26,0.00
2021,02,24,11,27,0.00
2021,02,24,11,28,0.00
2021,02,24,11,29,0.00
2021,02,24,11,30,0.00
2021,02,24,11,31,0.00
2021,02,24,11,32,0.00
2021,02,24,11,33,0.00
2021,02,24,11,34,0.00
2021,02,24,11,35,0.00
2021,02,24,11,36,0.00
2021,02,24,11,37,0.00
2021,02,24,11,38,0.00
2021,02,24,11,39,0.00
2021,02,24,11,40,0.00
2021,02,24,11,41,0.00
2021,02,24,11,42,0.00
2021,02,24,11,43,0.00
2021,02,24,11,44,0.00
2021,02,24,11,45,0.00
2021,02,24,11,46,0.00
2021,02,24,11,47,0.00
2021,02,24,11,48,0.00
2021,02,24,11,49,0.00
2021,02,24,11,50,0.00
2021,02,24,11,51,0.00
2021,02,24,11,52,0.00
2021,02,24,11,53,0.00
2021,02,24,11,54,0.00
2021,02,24,11,55,0.00
2021,02,24,11,56,0.00
2021,02,24,11,57,0.00
2021,02,24,11,58,0.00
2021,02,24,11,59,0.00
2021,02,24,12,00,0.00
2021,02,24,12,01,0.00
2021,02,24,12,02,0.00
2021,02,24,12,03,0.00
2021,02,24,12,04,0.00
2021,02,24,12,05,0.00
2021,02,24,12,06,0.00
2021,02,24,12,07,0.00
2021,02,24,12,08,0.00
2021,02,24,12,09,0.00
2021,02,24,12,10,0.00
2021,02,24,12,11,0.00
2021,02,24,12,12,0.00
2021,02,24,12,13,0.00
2021,02,24,12,14,1.70
2021,02,24,12,15,0.00
2021,02,24,12,16,0.00
2021,02,24,12,17,0.00
2021,02,24,12,18,0.00
2021,02,24,12,19,0.30
2021,02,24,12,20,0.90
2021,02,24,12,21,0.50
2021,02,24,12,22,1.20
2021,02,24,12,23,0.60
2021,02,24,12,24,1.00
2021,02,24,12,25,1.50
2021,02,24,12,26,0.40
2021,02,24,12,27,0.60
2021,02,24,12,28,1.10
2021,02,24,12,29,3.10
2021,02,24,12,30,6.10
2021,02,24,12,31,6.10
2021,02,24,12,32,4.10
2021,02,24,12,33,5.10
2021,02,24,12,34,6.40
2021,02,24,12,35,6.40
2021,02,24,12,36,3.10
2021,02,24,12,37,5.80
2021,02,24,12,38,3.50
2021,02,24,12,39,4.30
2021,02,24,12,40,4.10
2021,02,24,12,41,4.40
2021,02,24,12,42,5.50
2021,02,24,12,43,4.00
2021,02,24,12,44,6.40
2021,02,24,12,45,5.30
2021,02,24,12,46,5.00
2021,02,24,12,47,5.80
2021,02,24,12,48,3.90
2021,02,24,12,49,5.00
2021,02,24,12,50,5.80
2021,02,24,12,51,6.50
2021,02,24,12,52,6.40
2021,02,24,12,53,6.80
2021,02,24,12,54,4.40
2021,02,24,12,55,4.70
2021,02,24,12,56,5.20
2021,02,24,12,57,7.50
2021,02,24,12,58,7.90
2021,02,24,12,59,7.80
2021,02,24,13,00,9.40
2021,02,24,13,01,8.40
2021,02,24,13,02,6.50
2021,02,24,13,03,7.30
2021,02,24,13,04,7.40
2021,02,24,13,05,5.70
2021,02,24,13,06,5.80
2021,02,24,13,07,5.40
2021,02,24,13,08,7.10
2021,02,24,13,09,9.70
2021,02,24,13,10,6.10
2021,02,24,13,11,5.90
2021,02,24,13,12,7.20
2021,02,24,13,13,5.40
2021,02,24,13,14,7.60
2021,02,24,13,15,7.80
2021,02,24,13,16,6.80
2021,02,24,13,17,5.10
2021,02,24,13,18,7.30
2021,02,24,13,19,7.20
2021,02,24,13,20,7.60
2021,02,24,13,21,8.50
2021,02,24,13,22,7.70
2021,02,24,13,23,6.30
2021,02,24,13,24,7.60
2021,02,24,13,25,6.40
2021,02,24,13,26,7.60
2021,02,24,13,27,4.70
2021,02,24,13,28,9.30
2021,02,24,13,29,8.90
2021,02,24,13,30,7.00
2021,02,24,13,31,6.70
2021,02,24,13,32,6.20
2021,02,24,13,33,6.70
2021,02,24,13,34,8.90
2021,02,24,13,35,9.70
2021,02,24,13,36,10.20
2021,02,24,13,37,7.10
2021,02,24,13,38,7.00
2021,02,24,13,39,7.10
2021,02,24,13,40,9.50
2021,02,24,13,41,10.30
2021,02,24,13,42,8.50
2021,02,24,13,43,9.20
2021,02,24,13,44,7.30
2021,02,24,13,45,8.20
2021,02,24,13,46,8.00
2021,02,24,13,47,7.20
2021,02,24,13,48,9.30
2021,02,24,13,49,8.10
2021,02,24,13,50,7.40
2021,02,24,13,51,8.10
2021,02,24,13,52,9.80
2021,02,24,13,53,5.20
2021,02,24,13,54,7.30
2021,02,24,13,55,12.80
2021,02,24,13,56,9.40
2021,02,24,13,57,6.80
2021,02,24,13,58,8.20
2021,02,24,13,59,7.30
2021,02,24,14,00,10.50
2021,02,24,14,01,9.30
2021,02,24,14,02,12.50
2021,02,24,14,03,10.00
2021,02,24,14,04,10.80
2021,02,24,14,05,9.40
2021,02,24,14,06,9.00
2021,02,24,14,07,10.00
2021,02,24,14,08,8.40
2021,02,24,14,09,7.10
2021,02,24,14,10,7.50
2021,02,24,14,11,13.00
2021,02,24,14,12,5.30
2021,02,24,14,13,8.50
2021,02,24,14,14,11.50
2021,02,24,14,15,9.30
2021,02,24,14,16,8.10
2021,02,24,14,17,6.00
2021,02,24,14,18,7.80
2021,02,24,14,19,6.70
2021,02,24,14,20,5.90
2021,02,24,14,21,6.90
2021,02,24,14,22,4.70
2021,02,24,14,23,12.30
2021,02,24,14,24,12.10
2021,02,24,14,25,8.20
2021,02,24,14,26,9.30
2021,02,24,14,27,7.20
2021,02,24,14,28,11.50
2021,02,24,14,29,9.60
2021,02,24,14,30,6.50
2021,02,24,14,31,13.10
2021,02,24,14,32,13.80
2021,02,24,14,33,9.20
2021,02,24,14,34,7.90
2021,02,24,14,35,11.50
2021,02,24,14,36,10.00
2021,02,24,14,37,8.60
2021,02,24,14,38,6.90
2021,02,24,14,39,7.50
2021,02,24,14,40,7.20
2021,02,24,14,41,8.40
2021,02,24,14,42,6.20
2021,02,24,14,43,8.30
2021,02,24,14,44,7.20
2021,02,24,14,45,10.80
2021,02,24,14,46,8.30
2021,02,24,14,47,12.20
2021,02,24,14,48,13.20
2021,02,24,14,49,8.40
2021,02,24,14,50,7.90
2021,02,24,14,51,11.50
2021,02,24,14,52,6.60
2021,02,24,14,53,9.00
2021,02,24,14,54,8.50
2021,02,24,14,55,4.90
2021,02,24,14,56,11.90
2021,02,24,14,57,13.10
2021,02,24,14,58,8.20
2021,02,24,14,59,7.50
2021,02,24,15,00,11.90
2021,02,24,15,01,13.40
2021,02,24,15,02,13.30
2021,02,24,15,03,10.90
2021,02,24,15,04,12.50
2021,02,24,15,05,9.70
2021,02,24,15,06,9.90
2021,02,24,15,07,12.00
2021,02,24,15,08,13.80
2021,02,24,15,09,13.80
2021,02,24,15,10,11.80
2021,02,24,15,11,10.70
2021,02,24,15,12,7.90
2021,02,24,15,13,6.00
2021,02,24,15,14,12.40
2021,02,24,15,15,16.10
2021,02,24,15,16,13.00
2021,02,24,15,17,11.70
2021,02,24,15,18,13.10
2021,02,24,15,19,14.60
2021,02,24,15,20,10.30
2021,02,24,15,21,7.50
2021,02,24,15,22,9.20
2021,02,24,15,23,12.00
2021,02,24,15,24,12.20
2021,02,24,15,25,12.80
2021,02,24,15,26,7.10
2021,02,24,15,27,13.30
2021,02,24,15,28,13.20
2021,02,24,15,29,10.80
2021,02,24,15,30,12.10
2021,02,24,15,31,15.40
2021,02,24,15,32,8.70
2021,02,24,15,33,12.70
2021,02,24,15,34,13.40
2021,02,24,15,35,14.50
2021,02,24,15,36,11.00
2021,02,24,15,37,11.20
2021,02,24,15,38,13.20
2021,02,24,15,39,13.40
2021,02,24,15,40,12.50
2021,02,24,15,41,14.40
2021,02,24,15,42,7.50
2021,02,24,15,43,8.50
2021,02,24,15,44,9.10
2021,02,24,15,45,11.40
2021,02,24,15,46,9.90
2021,02,24,15,47,8.90
2021,02,24,15,48,9.50
2021,02,24,15,49,11.30
2021,02,24,15,50,11.00
2021,02,24,15,51,7.80
2021,02,24,15,52,9.60
2021,02,24,15,53,13.30
2021,02,24,15,54,12.40
2021,02,24,15,55,10.90
2021,02,24,15,56,10.60
2021,02,24,15,57,25.30
2021,02,24,15,58,19.70
2021,02,24,15,59,20.70
2021,02,24,16,00,21.10
2021,02,24,16,01,20.30
2021,02,24,16,02,15.20
2021,02,24,16,03,15.90
2021,02,24,16,04,11.70
2021,02,24,16,05,9.30
2021,02,24,16,06,7.60
2021,02,24,16,07,9.80
2021,02,24,16,08,13.90
2021,02,24,16,09,13.40
2021,02,24,16,10,13.90
2021,02,24,16,11,10.40
2021,02,24,16,12,7.80
2021,02,24,16,13,8.40
2021,02,24,16,14,13.30
2021,02,24,16,15,14.70
2021,02,24,16,16,13.80
2021,02,24,16,17,10.50
2021,02,24,16,18,10.40
2021,02,24,16,19,10.60
2021,02,24,16,20,10.40
2021,02,24,16,21,7.50
2021,02,24,16,22,6.60
2021,02,24,16,23,8.00
2021,02,24,16,24,9.30
2021,02,24,16,25,9.30
2021,02,24,16,26,7.30
2021,02,24,16,27,10.80
2021,02,24,16,28,9.80
2021,02,24,16,29,11.70
2021,02,24,16,30,9.80
2021,02,24,16,31,10.50
2021,02,24,16,32,9.10
2021,02,24,16,33,9.50
2021,02,24,16,34,8.10
2021,02,24,16,35,9.30
2021,02,24,16,36,7.00
2021,02,24,16,37,7.20
2021,02,24,16,38,11.30
2021,02,24,16,39,11.40
2021,02,24,16,40,9.70
2021,02,24,16,41,9.70
2021,02,24,16,42,6.80
2021,02,24,16,43,8.70
2021,02,24,16,44,9.80
2021,02,24,16,45,10.90
2021,02,24,16,46,8.90
2021,02,24,16,47,7.70
2021,02,24,16,48,9.90
2021,02,24,16,49,12.50
2021,02,24,16,50,10.50
2021,02,24,16,51,10.40
2021,02,24,16,52,6.40
2021,02,24,16,53,6.30
2021,02,24,16,54,11.40
2021,02,24,16,55,11.30
2021,02,24,16,56,10.70
2021,02,24,16,57,11.40
2021,02,24,16,58,5.50
2021,02,24,16,59,5.10
2021,02,24,17,00,9.40
2021,02,24,17,01,11.70
2021,02,24,17,02,10.30
2021,02,24,17,03,10.50
2021,02,24,17,04,8.40
2021,02,24,17,05,15.00
2021,02,24,17,06,9.70
2021,02,24,17,07,9.00
2021,02,24,17,08,8.90
2021,02,24,17,09,10.00
2021,02,24,17,10,10.80
2021,02,24,17,11,9.30
2021,02,24,17,12,7.30
2021,02,24,17,13,6.80
2021,02,24,17,14,10.90
2021,02,24,17,15,6.20
2021,02,24,17,16,9.30
2021,02,24,17,17,11.50
2021,02,24,17,18,8.60
2021,02,24,17,19,5.70
2021,02,24,17,20,9.90
2021,02,24,17,21,10.00
2021,02,24,17,22,7.20
2021,02,24,17,23,9.90
2021,02,24,17,24,9.20
2021,02,24,17,25,8.20
2021,02,24,17,26,8.10
2021,02,24,17,27,11.50
2021,02,24,17,28,9.00
2021,02,24,17,29,10.80
2021,02,24,17,30,7.80
2021,02,24,17,31,7.90
2021,02,24,17,32,9.70
2021,02,24,17,33,10.20
2021,02,24,17,34,12.20
2021,02,24,17,35,10.70
2021,02,24,17,36,5.50
2021,02,24,17,37,6.40
2021,02,24,17,38,7.50
2021,02,24,17,39,8.60
2021,02,24,17,40,9.10
2021,02,24,17,41,8.90
2021,02,24,17,42,8.40
2021,02,24,17,43,9.70
2021,02,24,17,44,8.80
2021,02,24,17,45,9.20
2021,02,24,17,46,5.40
2021,02,24,17,47,5.30
2021,02,24,17,48,4.80
2021,02,24,17,49,4.70
2021,02,24,17,50,5.10
2021,02,24,17,51,9.30
2021,02,24,17,52,9.80
2021,02,24,17,53,9.90
2021,02,24,17,54,9.10
2021,02,24,17,55,8.10
2021,02,24,17,56,7.50
2021,02,24,17,57,6.90
2021,02,24,17,58,7.40
2021,02,24,17,59,5.20
2021,02,24,18,00,6.20
2021,02,24,18,01,7.50
2021,02,24,18,02,8.30
2021,02,24,18,03,8.30
2021,02,24,18,04,7.60
2021,02,24,18,05,7.40
2021,02,24,18,06,6.00
2021,02,24,18,07,6.80
2021,02,24,18,08,4.30
2021,02,24,18,09,4.70
2021,02,24,18,10,8.50
2021,02,24,18,11,7.60
2021,02,24,18,12,7.00
2021,02,24,18,13,8.30
2021,02,24,18,14,7.20
2021,02,24,18,15,7.70
2021,02,24,18,16,5.90
2021,02,24,18,17,6.20
2021,02,24,18,18,7.10
2021,02,24,18,19,7.30
2021,02,24,18,20,7.60
2021,02,24,18,21,6.90
2021,02,24,18,22,7.70
2021,02,24,18,23,9.30
2021,02,24,18,24,8.90
2021,02,24,18,25,5.60
2021,02,24,18,26,5.60
2021,02,24,18,27,10.50
2021,02,24,18,28,8.80
2021,02,24,18,29,9.40
2021,02,24,18,30,9.00
2021,02,24,18,31,6.70
2021,02,24,18,32,6.00
2021,02,24,18,33,9.00
2021,02,24,18,34,9.60
2021,02,24,18,35,11.30
2021,02,24,18,36,7.20
2021,02,24,18,37,7.00
2021,02,24,18,38,6.80
2021,02,24,18,39,17.10
2021,02,24,18,40,7.10
2021,02,24,18,41,5.00
2021,02,24,18,42,4.90
2021,02,24,18,43,7.80
2021,02,24,18,44,6.80
2021,02,24,18,45,8.60
2021,02,24,18,46,9.60
2021,02,24,18,47,16.40
2021,02,24,18,48,9.40
2021,02,24,18,49,10.00
2021,02,24,18,50,12.80
2021,02,24,18,51,7.10
2021,02,24,18,52,9.00
2021,02,24,18,53,15.30
2021,02,24,18,54,7.20
2021,02,24,18,55,10.60
2021,02,24,18,56,8.10
2021,02,24,18,57,8.40
2021,02,24,18,58,9.70
2021,02,24,18,59,7.50
2021,02,24,19,00,9.20
2021,02,24,19,01,9.30
2021,02,24,19,02,9.30
2021,02,24,19,03,8.90
2021,02,24,19,04,8.00
2021,02,24,19,05,8.60
2021,02,24,19,06,8.70